SWA284 KDCA-KBOS

Flight info

Callsign SWA284
Flight time 1h 3m
Altitude 35000
Route SOOKI6 SWANN BROSS Q419 JFK ROBUC3
Aircraft B738/M-SDE2E3FGHIRWXY/LB1

Departure

Time 2026-05-08 01:56
Airport Ronald Reagan Washington National Airport (KDCA)

Arrival

Time 2026-05-08 02:59
Airport Boston Logan International Airport (KBOS)
Time Latitude Longitude Altitude Speed Heading
2026-05-08 01:24 38.85440 -77.04234 24 ft 0 kts 163°
2026-05-08 01:40 38.85451 -77.04238 24 ft 2 kts 163°
2026-05-08 01:40 38.85465 -77.04243 24 ft 2 kts 163°
2026-05-08 01:40 38.85474 -77.04247 24 ft 1 kts 163°
2026-05-08 01:40 38.85487 -77.04256 24 ft 2 kts 120°
2026-05-08 01:41 38.85490 -77.04275 24 ft 1 kts 82°
2026-05-08 01:41 38.85489 -77.04282 25 ft 1 kts 67°
2026-05-08 01:41 38.85487 -77.04288 25 ft 0 kts 71°
2026-05-08 01:41 38.85487 -77.04287 25 ft 0 kts 71°
2026-05-08 01:44 38.85488 -77.04284 25 ft 2 kts 71°
2026-05-08 01:45 38.85500 -77.04237 24 ft 7 kts 73°
2026-05-08 01:45 38.85516 -77.04171 23 ft 8 kts 73°
2026-05-08 01:45 38.85533 -77.04098 22 ft 8 kts 73°
2026-05-08 01:45 38.85567 -77.04038 21 ft 10 kts 14°
2026-05-08 01:46 38.85647 -77.04041 21 ft 12 kts 353°
2026-05-08 01:46 38.85690 -77.04046 21 ft 0 kts 356°
2026-05-08 01:49 38.85707 -77.04047 21 ft 4 kts 356°
2026-05-08 01:50 38.85755 -77.04052 20 ft 11 kts 355°
2026-05-08 01:50 38.85861 -77.04063 20 ft 12 kts 355°
2026-05-08 01:50 38.85925 -77.04037 19 ft 10 kts 59°
2026-05-08 01:50 38.85954 -77.03976 19 ft 0 kts 31°
2026-05-08 01:51 38.85955 -77.03976 19 ft 0 kts 31°
2026-05-08 01:51 38.85965 -77.03970 19 ft 3 kts 25°
2026-05-08 01:51 38.85995 -77.03956 18 ft 0 kts 15°
2026-05-08 01:54 38.86000 -77.03954 18 ft 1 kts 15°
2026-05-08 01:54 38.86021 -77.03947 18 ft 4 kts 15°
2026-05-08 01:54 38.86064 -77.03928 18 ft 7 kts 26°
2026-05-08 01:55 38.86073 -77.03874 17 ft 7 kts 145°
2026-05-08 01:55 38.86041 -77.03867 18 ft 0 kts 175°
2026-05-08 01:55 38.85992 -77.03862 18 ft 33 kts 176°
2026-05-08 01:55 38.85460 -77.03808 20 ft 115 kts 175°
2026-05-08 01:56 38.84467 -77.03708 250 ft 159 kts 177°
2026-05-08 01:56 38.83328 -77.03594 1014 ft 171 kts 175°
2026-05-08 01:56 38.82178 -77.03370 1709 ft 172 kts 172°
2026-05-08 01:56 38.80942 -77.03073 2081 ft 189 kts 171°
2026-05-08 01:57 38.79592 -77.02757 2496 ft 205 kts 172°
2026-05-08 01:57 38.78120 -77.02415 2930 ft 222 kts 168°
2026-05-08 01:57 38.76647 -77.01608 3319 ft 241 kts 142°
2026-05-08 01:57 38.75607 -76.99921 3828 ft 251 kts 111°
2026-05-08 01:58 38.75204 -76.97748 4452 ft 256 kts 91°
2026-05-08 01:58 38.75161 -76.95411 5030 ft 267 kts 85°
2026-05-08 01:58 38.75503 -76.93054 5574 ft 274 kts 65°
2026-05-08 01:58 38.76498 -76.91004 6249 ft 274 kts 43°
2026-05-08 01:59 38.77982 -76.89461 6977 ft 274 kts 28°
2026-05-08 01:59 38.79612 -76.88181 7632 ft 280 kts 26°
2026-05-08 01:59 38.81309 -76.86912 8358 ft 284 kts 25°
2026-05-08 01:59 38.83027 -76.85613 9029 ft 290 kts 25°
2026-05-08 02:00 38.84759 -76.84281 9716 ft 295 kts 25°
2026-05-08 02:00 38.86525 -76.82836 10350 ft 304 kts 30°
2026-05-08 02:00 38.88242 -76.81084 10663 ft 325 kts 35°
2026-05-08 02:00 38.89965 -76.79128 10991 ft 344 kts 37°
2026-05-08 02:01 38.91763 -76.76997 11352 ft 361 kts 38°
2026-05-08 02:01 38.93656 -76.74738 11653 ft 378 kts 38°
2026-05-08 02:01 38.95611 -76.72425 12108 ft 390 kts 38°
2026-05-08 02:01 38.97652 -76.70025 12728 ft 398 kts 38°
2026-05-08 02:02 38.99711 -76.67619 13374 ft 405 kts 38°
2026-05-08 02:02 39.01801 -76.65169 13949 ft 413 kts 38°
2026-05-08 02:02 39.03890 -76.62609 14599 ft 420 kts 40°
2026-05-08 02:02 39.05966 -76.59960 15321 ft 425 kts 40°
2026-05-08 02:03 39.08084 -76.57213 15967 ft 432 kts 40°
2026-05-08 02:03 39.10044 -76.54267 16541 ft 444 kts 51°
2026-05-08 02:03 39.11575 -76.50694 17172 ft 453 kts 65°
2026-05-08 02:03 39.12555 -76.46748 17744 ft 461 kts 76°
2026-05-08 02:04 39.13179 -76.42732 18372 ft 465 kts 81°
2026-05-08 02:04 39.13670 -76.38590 18928 ft 471 kts 83°
2026-05-08 02:04 39.14097 -76.34392 19559 ft 475 kts 84°
2026-05-08 02:04 39.14519 -76.30101 20098 ft 482 kts 84°
2026-05-08 02:05 39.14945 -76.25819 20629 ft 487 kts 83°
2026-05-08 02:05 39.15385 -76.21466 21177 ft 492 kts 83°
2026-05-08 02:05 39.15848 -76.17090 21721 ft 496 kts 83°
2026-05-08 02:05 39.16328 -76.12702 22208 ft 501 kts 82°
2026-05-08 02:06 39.16830 -76.08204 22691 ft 506 kts 82°
2026-05-08 02:06 39.17336 -76.03741 23148 ft 510 kts 82°
2026-05-08 02:06 39.17861 -75.99153 23646 ft 514 kts 81°
2026-05-08 02:06 39.18546 -75.94669 24048 ft 519 kts 74°
2026-05-08 02:07 39.19678 -75.90231 24560 ft 520 kts 65°
2026-05-08 02:07 39.21276 -75.86038 24936 ft 519 kts 55°
2026-05-08 02:07 39.23298 -75.82244 25220 ft 515 kts 45°
2026-05-08 02:07 39.25734 -75.78852 25551 ft 514 kts 36°
2026-05-08 02:08 39.28443 -75.75890 26042 ft 510 kts 30°
2026-05-08 02:08 39.31310 -75.73124 26599 ft 509 kts 28°
2026-05-08 02:08 39.34182 -75.70454 26979 ft 514 kts 27°
2026-05-08 02:08 39.37098 -75.67708 27564 ft 515 kts 28°
2026-05-08 02:09 39.39922 -75.64948 28237 ft 513 kts 29°
2026-05-08 02:09 39.42718 -75.62102 28966 ft 510 kts 30°
2026-05-08 02:09 39.45457 -75.59226 29465 ft 511 kts 31°
2026-05-08 02:09 39.48203 -75.56274 30021 ft 511 kts 31°
2026-05-08 02:10 39.50927 -75.53301 30457 ft 512 kts 32°
2026-05-08 02:10 39.53627 -75.50326 30844 ft 513 kts 32°
2026-05-08 02:10 39.56383 -75.47276 31239 ft 514 kts 32°
2026-05-08 02:10 39.59106 -75.44248 31782 ft 511 kts 31°
2026-05-08 02:11 39.61817 -75.41229 32144 ft 512 kts 31°
2026-05-08 02:11 39.64536 -75.38206 32501 ft 513 kts 31°
2026-05-08 02:11 39.67257 -75.35174 33010 ft 510 kts 31°
2026-05-08 02:11 39.69973 -75.32145 33365 ft 510 kts 32°
2026-05-08 02:12 39.72660 -75.29152 33655 ft 511 kts 31°
2026-05-08 02:12 39.75303 -75.26203 33967 ft 511 kts 32°
2026-05-08 02:12 39.78009 -75.23141 34273 ft 513 kts 34°
2026-05-08 02:12 39.80606 -75.19884 34624 ft 516 kts 38°
2026-05-08 02:13 39.83095 -75.16459 34873 ft 520 kts 40°
2026-05-08 02:13 39.85539 -75.12901 34892 ft 523 kts 42°
2026-05-08 02:13 39.90243 -75.05767 34895 ft 520 kts 43°
2026-05-08 02:14 39.94957 -74.98559 34889 ft 519 kts 43°
2026-05-08 02:14 39.99453 -74.90999 34887 ft 524 kts 49°
2026-05-08 02:15 40.03513 -74.83106 34886 ft 526 kts 52°
2026-05-08 02:15 40.07496 -74.75053 34887 ft 525 kts 52°
2026-05-08 02:16 40.11477 -74.67017 34880 ft 525 kts 52°
2026-05-08 02:16 40.15528 -74.58923 34880 ft 526 kts 51°
2026-05-08 02:17 40.19790 -74.51114 34880 ft 519 kts 44°
2026-05-08 02:17 40.24804 -74.44437 34873 ft 510 kts 34°
2026-05-08 02:18 40.30256 -74.38435 34874 ft 507 kts 30°
2026-05-08 02:18 40.35800 -74.32667 34880 ft 506 kts 31°
2026-05-08 02:19 40.41328 -74.26894 34879 ft 509 kts 31°
2026-05-08 02:19 40.46815 -74.21067 34885 ft 508 kts 31°
2026-05-08 02:20 40.52182 -74.15025 34883 ft 516 kts 39°
2026-05-08 02:20 40.54507 -74.11372 34882 ft 524 kts 52°
2026-05-08 02:20 40.56253 -74.07161 34892 ft 529 kts 65°
2026-05-08 02:21 40.57570 -74.02659 35050 ft 532 kts 69°
2026-05-08 02:21 40.58741 -73.98015 34809 ft 528 kts 72°
2026-05-08 02:21 40.60839 -73.88727 34880 ft 533 kts 73°
2026-05-08 02:22 40.63086 -73.79467 34878 ft 528 kts 64°
2026-05-08 02:22 40.64821 -73.75235 34885 ft 523 kts 52°
2026-05-08 02:22 40.66978 -73.71374 34887 ft 521 kts 46°
2026-05-08 02:23 40.69271 -73.67767 34743 ft 517 kts 43°
2026-05-08 02:23 40.71680 -73.64230 34382 ft 513 kts 41°
2026-05-08 02:23 40.74079 -73.60829 33992 ft 508 kts 41°
2026-05-08 02:23 40.76509 -73.57421 33468 ft 508 kts 40°
2026-05-08 02:24 40.78899 -73.54060 32910 ft 507 kts 40°
2026-05-08 02:24 40.81289 -73.50665 32388 ft 507 kts 41°
2026-05-08 02:24 40.83679 -73.47232 31830 ft 506 kts 41°
2026-05-08 02:24 40.86028 -73.43822 31287 ft 505 kts 42°
2026-05-08 02:25 40.88382 -73.40377 30756 ft 504 kts 42°
2026-05-08 02:25 40.90693 -73.36977 30218 ft 503 kts 43°
2026-05-08 02:25 40.93059 -73.33482 29627 ft 502 kts 43°
2026-05-08 02:25 40.95355 -73.30085 29077 ft 499 kts 44°
2026-05-08 02:26 40.97660 -73.26666 28530 ft 496 kts 43°
2026-05-08 02:26 40.99915 -73.23314 27993 ft 493 kts 44°
2026-05-08 02:26 41.02192 -73.19929 27453 ft 490 kts 44°
2026-05-08 02:26 41.04456 -73.16560 26906 ft 487 kts 44°
2026-05-08 02:27 41.06692 -73.13229 26369 ft 484 kts 44°
2026-05-08 02:27 41.08923 -73.09904 25830 ft 481 kts 44°
2026-05-08 02:27 41.11142 -73.06592 25300 ft 478 kts 44°
2026-05-08 02:27 41.13371 -73.03263 24744 ft 473 kts 45°
2026-05-08 02:28 41.15508 -73.00063 24237 ft 458 kts 45°
2026-05-08 02:28 41.17592 -72.96937 23732 ft 445 kts 45°
2026-05-08 02:28 41.19574 -72.93847 23236 ft 435 kts 49°
2026-05-08 02:28 41.21346 -72.90643 22911 ft 422 kts 56°
2026-05-08 02:29 41.22850 -72.87346 22894 ft 420 kts 60°
2026-05-08 02:29 41.24239 -72.83923 22919 ft 428 kts 62°
2026-05-08 02:29 41.25609 -72.80354 22853 ft 432 kts 63°
2026-05-08 02:29 41.26948 -72.76787 22838 ft 430 kts 64°
2026-05-08 02:30 41.28254 -72.73282 22845 ft 429 kts 63°
2026-05-08 02:30 41.29585 -72.69714 22842 ft 430 kts 63°
2026-05-08 02:30 41.30917 -72.66157 22844 ft 430 kts 63°
2026-05-08 02:30 41.32259 -72.62587 22845 ft 430 kts 63°
2026-05-08 02:31 41.33593 -72.59048 22842 ft 430 kts 63°
2026-05-08 02:31 41.34934 -72.55496 22847 ft 431 kts 64°
2026-05-08 02:31 41.36269 -72.51962 22843 ft 430 kts 63°
2026-05-08 02:31 41.37586 -72.48481 22842 ft 430 kts 63°
2026-05-08 02:32 41.38929 -72.44928 22839 ft 430 kts 63°
2026-05-08 02:32 41.40275 -72.41363 22843 ft 430 kts 63°
2026-05-08 02:32 41.41616 -72.37807 22838 ft 430 kts 63°
2026-05-08 02:32 41.42950 -72.34261 22845 ft 430 kts 64°
2026-05-08 02:33 41.44302 -72.30670 22845 ft 430 kts 64°
2026-05-08 02:33 41.45636 -72.27123 22845 ft 430 kts 64°
2026-05-08 02:33 41.46969 -72.23573 22844 ft 429 kts 64°
2026-05-08 02:33 41.48302 -72.20019 22842 ft 430 kts 64°
2026-05-08 02:34 41.49633 -72.16431 22619 ft 432 kts 64°
2026-05-08 02:34 41.50951 -72.12839 22369 ft 427 kts 65°
2026-05-08 02:34 41.52238 -72.09311 22125 ft 424 kts 65°
2026-05-08 02:34 41.53519 -72.05791 21895 ft 423 kts 65°
2026-05-08 02:35 41.54800 -72.02265 21660 ft 422 kts 65°
2026-05-08 02:35 41.56063 -71.98756 21417 ft 420 kts 66°
2026-05-08 02:35 41.57244 -71.95161 21176 ft 418 kts 69°
2026-05-08 02:35 41.58324 -71.91579 20924 ft 416 kts 71°
2026-05-08 02:36 41.59365 -71.87997 20691 ft 414 kts 71°
2026-05-08 02:36 41.60385 -71.84446 20445 ft 412 kts 71°
2026-05-08 02:36 41.61406 -71.80890 20173 ft 410 kts 71°
2026-05-08 02:36 41.62429 -71.77331 19920 ft 408 kts 71°
2026-05-08 02:37 41.63451 -71.73801 19654 ft 407 kts 71°
2026-05-08 02:37 41.64471 -71.70292 19391 ft 404 kts 71°
2026-05-08 02:37 41.65491 -71.66793 19137 ft 403 kts 71°
2026-05-08 02:37 41.66507 -71.63315 18892 ft 401 kts 71°
2026-05-08 02:38 41.67516 -71.59865 18548 ft 397 kts 71°
2026-05-08 02:38 41.68513 -71.56455 18121 ft 395 kts 71°
2026-05-08 02:38 41.69503 -71.53064 17665 ft 393 kts 70°
2026-05-08 02:38 41.70488 -71.49689 17329 ft 388 kts 70°
2026-05-08 02:39 41.71468 -71.46326 16929 ft 385 kts 70°
2026-05-08 02:39 41.72481 -71.43046 16477 ft 383 kts 65°
2026-05-08 02:39 41.73664 -71.39856 16034 ft 381 kts 61°
2026-05-08 02:39 41.74953 -71.36779 15585 ft 378 kts 58°
2026-05-08 02:40 41.76302 -71.33718 15129 ft 375 kts 58°
2026-05-08 02:40 41.77612 -71.30770 14696 ft 372 kts 58°
2026-05-08 02:40 41.78921 -71.27798 14259 ft 368 kts 58°
2026-05-08 02:40 41.80207 -71.24838 13815 ft 365 kts 58°
2026-05-08 02:41 41.81457 -71.21930 13379 ft 361 kts 58°
2026-05-08 02:41 41.82699 -71.19018 12943 ft 357 kts 58°
2026-05-08 02:41 41.83914 -71.16160 12522 ft 354 kts 58°
2026-05-08 02:41 41.85135 -71.13281 12105 ft 350 kts 58°
2026-05-08 02:42 41.86312 -71.10511 12018 ft 334 kts 58°
2026-05-08 02:42 41.87452 -71.07861 12029 ft 324 kts 57°
2026-05-08 02:42 41.88589 -71.05240 12031 ft 326 kts 57°
2026-05-08 02:42 41.89733 -71.02607 12025 ft 326 kts 57°
2026-05-08 02:43 41.90864 -70.99995 12028 ft 325 kts 57°
2026-05-08 02:43 41.91999 -70.97365 12029 ft 324 kts 57°
2026-05-08 02:43 41.93122 -70.94757 12022 ft 325 kts 57°
2026-05-08 02:43 41.94257 -70.92121 12008 ft 324 kts 57°
2026-05-08 02:44 41.95375 -70.89520 11742 ft 319 kts 58°
2026-05-08 02:44 41.96470 -70.86968 11379 ft 317 kts 58°
2026-05-08 02:44 41.97570 -70.84402 10995 ft 315 kts 57°
2026-05-08 02:44 41.98666 -70.81847 10616 ft 313 kts 57°
2026-05-08 02:45 41.99739 -70.79343 10233 ft 311 kts 57°
2026-05-08 02:45 42.00829 -70.76859 10007 ft 302 kts 54°
2026-05-08 02:45 42.02049 -70.74648 9923 ft 288 kts 46°
2026-05-08 02:45 42.03354 -70.72662 9854 ft 280 kts 43°
2026-05-08 02:46 42.04710 -70.70716 9534 ft 291 kts 43°
2026-05-08 02:46 42.06090 -70.68721 9184 ft 290 kts 44°
2026-05-08 02:46 42.07428 -70.66750 8846 ft 288 kts 45°
2026-05-08 02:46 42.08763 -70.64755 8505 ft 285 kts 45°
2026-05-08 02:47 42.10117 -70.62817 8165 ft 282 kts 39°
2026-05-08 02:47 42.11705 -70.61350 7996 ft 269 kts 17°
2026-05-08 02:47 42.13502 -70.60773 7960 ft 264 kts
2026-05-08 02:47 42.15313 -70.60497 7722 ft 258 kts
2026-05-08 02:48 42.17075 -70.60234 7414 ft 257 kts
2026-05-08 02:48 42.18851 -70.59910 7107 ft 255 kts
2026-05-08 02:48 42.20597 -70.59549 6796 ft 255 kts
2026-05-08 02:48 42.22358 -70.59169 6467 ft 254 kts
2026-05-08 02:49 42.24088 -70.58794 6157 ft 252 kts
2026-05-08 02:49 42.25808 -70.58424 5848 ft 251 kts
2026-05-08 02:49 42.27529 -70.58055 5502 ft 246 kts
2026-05-08 02:49 42.29165 -70.57701 5285 ft 233 kts
2026-05-08 02:50 42.30655 -70.56972 5157 ft 225 kts 34°
2026-05-08 02:50 42.31673 -70.55458 5125 ft 213 kts 53°
2026-05-08 02:50 42.32420 -70.53786 5117 ft 209 kts 56°
2026-05-08 02:50 42.33157 -70.52097 5061 ft 208 kts 51°
2026-05-08 02:51 42.34211 -70.50838 4992 ft 200 kts 18°
2026-05-08 02:51 42.35542 -70.50665 4993 ft 192 kts 341°
2026-05-08 02:51 42.36731 -70.51457 5005 ft 192 kts 330°
2026-05-08 02:51 42.37971 -70.52107 4991 ft 190 kts 334°
2026-05-08 02:52 42.38981 -70.53211 4995 ft 190 kts 300°
2026-05-08 02:52 42.39381 -70.54923 5000 ft 193 kts 279°
2026-05-08 02:52 42.39434 -70.56729 4994 ft 193 kts 270°
2026-05-08 02:52 42.39378 -70.58559 4998 ft 198 kts 270°
2026-05-08 02:53 42.39313 -70.60448 4993 ft 203 kts 270°
2026-05-08 02:53 42.39246 -70.62352 4989 ft 202 kts 270°
2026-05-08 02:53 42.39178 -70.64266 4991 ft 203 kts 269°
2026-05-08 02:53 42.39109 -70.66140 4834 ft 197 kts 270°
2026-05-08 02:54 42.39039 -70.67978 4429 ft 198 kts 270°
2026-05-08 02:54 42.38959 -70.69857 4077 ft 201 kts 270°
2026-05-08 02:54 42.38869 -70.71727 3735 ft 201 kts 270°
2026-05-08 02:54 42.38772 -70.73606 3398 ft 200 kts 270°
2026-05-08 02:55 42.38672 -70.75487 3053 ft 199 kts 270°
2026-05-08 02:55 42.38470 -70.79170 3012 ft 199 kts 270°
2026-05-08 02:55 42.38368 -70.81041 2984 ft 195 kts 270°
2026-05-08 02:56 42.38055 -70.82770 2849 ft 189 kts 243°
2026-05-08 02:56 42.37440 -70.84216 2698 ft 171 kts 264°
2026-05-08 02:56 42.37462 -70.85774 2349 ft 162 kts 281°
2026-05-08 02:56 42.37592 -70.87273 1915 ft 158 kts 281°
2026-05-08 02:57 42.37637 -70.88738 1554 ft 156 kts 271°
2026-05-08 02:57 42.37473 -70.90177 1311 ft 154 kts 261°
2026-05-08 02:57 42.37217 -70.91511 1145 ft 135 kts 262°
2026-05-08 02:57 42.37022 -70.92731 875 ft 132 kts 264°
2026-05-08 02:58 42.36850 -70.93940 635 ft 132 kts 263°
2026-05-08 02:58 42.36644 -70.95172 581 ft 134 kts 259°
2026-05-08 02:58 42.36415 -70.96403 420 ft 135 kts 260°
2026-05-08 02:58 42.36217 -70.97646 211 ft 135 kts 260°
2026-05-08 02:59 42.36001 -70.98872 28 ft 134 kts 258°
2026-05-08 02:59 42.35821 -70.99906 14 ft 82 kts 257°
2026-05-08 02:59 42.35712 -71.00516 17 ft 64 kts 256°
2026-05-08 02:59 42.35622 -71.01021 20 ft 45 kts 257°
2026-05-08 03:00 42.35590 -71.01260 21 ft 11 kts 291°
2026-05-08 03:00 42.35657 -71.01302 21 ft 11 kts 10°
2026-05-08 03:00 42.35731 -71.01302 20 ft 11 kts 317°
2026-05-08 03:00 42.35767 -71.01408 20 ft 13 kts 289°
2026-05-08 03:01 42.35799 -71.01526 20 ft 12 kts 289°
2026-05-08 03:01 42.35867 -71.01558 20 ft 11 kts 19°
2026-05-08 03:01 42.35945 -71.01520 20 ft 11 kts 20°
2026-05-08 03:01 42.36023 -71.01483 19 ft 12 kts 20°
2026-05-08 03:02 42.36102 -71.01445 19 ft 11 kts 20°
2026-05-08 03:02 42.36170 -71.01440 19 ft 9 kts 314°
2026-05-08 03:02 42.36223 -71.01484 18 ft 9 kts 10°
2026-05-08 03:02 42.36285 -71.01455 18 ft 9 kts 20°
2026-05-08 03:03 42.36350 -71.01429 18 ft 9 kts 358°
2026-05-08 03:03 42.36398 -71.01482 18 ft 9 kts 301°
2026-05-08 03:03 42.36433 -71.01559 18 ft 9 kts 303°
2026-05-08 03:03 42.36483 -71.01613 17 ft 9 kts 334°
2026-05-08 03:04 42.36543 -71.01652 17 ft 9 kts 334°
2026-05-08 03:04 42.36565 -71.01666 17 ft 0 kts 333°